Lemoore NAS, CA

6:47 AM PDT on May 28, 2017 (GMT -0700)
Lemoore Naval Air Station

Weather History for KNLC - December, 2012

Change the Weather History Date:

Tuesday, December 4, 2012

  Actual Average Record
Temperature  
Mean Temperature 54 °F -  
Max Temperature 61 °F 56 °F 69 °F (2007)
Min Temperature 48 °F 37 °F 24 °F (2011)
Degree Days  
Heating Degree Days 10    
Growing Degree Days 4 (Base 50)    
Moisture  
Dew Point 51 °F    
Average Humidity 94    
Maximum Humidity 100    
Minimum Humidity 75    
Precipitation  
Precipitation 0.01 in - - ()
Sea Level Pressure  
Sea Level Pressure 30.24 in    
Wind  
Wind Speed 4 mph (SE)    
Max Wind Speed 9 mph    
Max Gust Speed -    
Visibility 2 miles    
Events Fog    
Averages and records for this station are not official NWS values.
T = Trace of Precipitation, MM = Missing Value Source: NWS Daily Summary

Daily Weather History Graph

Daily Weather History Graph

Search for Another Location

Airport or City:

Trip Planner

Search our weather history database for the weather conditions in past years. The results will help you decide how hot, cold, wet, or windy it might be!

Date:

Astronomy

Dec. 04, 2012 Rise Set
Actual Time 6:55 AM PST 4:44 PM PST
Civil Twilight 6:27 AM PST 5:12 PM PST
Nautical Twilight 5:55 AM PST 5:44 PM PST
Astronomical Twilight 5:24 AM PST 6:16 PM PST
Moon 10:30 PM PST (12/4) 10:58 AM PST (12/4)
Length of Visible Light 10h 45m
Length of Day
9h 48m
Waning Gibbous, 68% of the Moon is Illuminated
Dec 4
Waning Gibbous
Dec 6
Last Quarter
Dec 13
New
Dec 19
First Quarter
Dec 28
Full

Hourly Weather History & Observations

Time (PST) Temp. Dew Point Humidity Pressure Visibility Wind Dir Wind Speed Gust Speed Precip Events Conditions
12:01 AM - - N/A% - 1.4 mi Calm Calm - N/A   Unknown
12:56 AM - - N/A% - 0.6 mi SSE 4.6 mph - N/A   Unknown
1:56 AM - - N/A% - 1.2 mi East 6.9 mph - N/A   Unknown
2:56 AM - - N/A% - 0.9 mi East 4.6 mph - N/A   Unknown
3:56 AM - - N/A% - 0.7 mi East 6.9 mph - N/A   Unknown
4:56 AM - - N/A% - 0.6 mi WSW 5.8 mph - N/A   Unknown
5:56 AM - - N/A% - 0.6 mi Calm Calm - N/A   Unknown
6:56 AM - - N/A% - 0.9 mi Calm Calm - N/A   Unknown
7:15 AM 48.2 °F 46.4 °F 93% 30.26 in 0.2 mi Calm Calm - N/A Fog Fog
7:29 AM 48.2 °F 46.4 °F 93% 30.27 in 0.2 mi Calm Calm - 0.01 in Fog Fog
7:46 AM 48.2 °F 46.4 °F 93% 30.27 in 0.2 mi Calm Calm - 0.01 in Fog Fog
7:53 AM 50.0 °F 46.4 °F 87% 30.27 in 0.1 mi East 3.5 mph - 0.01 in Fog Fog
7:56 AM 50.7 °F 46.9 °F 87% 30.27 in 0.1 mi Calm Calm - 0.01 in Fog Fog
8:17 AM 48.2 °F 48.2 °F 100% 30.27 in 0.1 mi SE 3.5 mph - N/A Fog Fog
8:56 AM 48.0 °F 48.0 °F 100% 30.28 in 0.1 mi SSE 3.5 mph - N/A Fog Fog
9:56 AM 50.0 °F 50.0 °F 100% 30.29 in 0.1 mi SE 8.1 mph - N/A   Overcast
10:12 AM 50.0 °F 50.0 °F 100% 30.28 in 0.1 mi SSE 5.8 mph - N/A Fog Fog
10:34 AM 51.8 °F 50.0 °F 94% 30.27 in 0.1 mi SSE 8.1 mph - N/A Fog Fog
10:54 AM 51.8 °F 51.8 °F 100% 30.27 in 0.1 mi South 9.2 mph - N/A Fog Fog
10:56 AM 51.1 °F 51.1 °F 100% 30.27 in 0.1 mi SSE 8.1 mph - N/A Fog Fog
11:56 AM 52.0 °F 52.0 °F 100% 30.25 in 0.1 mi SE 5.8 mph - N/A Fog Fog
12:15 PM 51.8 °F 51.8 °F 100% 30.24 in 1.0 mi SE 5.8 mph - N/A   Overcast
12:23 PM 53.6 °F 51.8 °F 94% 30.23 in 1.5 mi ESE 5.8 mph - N/A   Overcast
12:41 PM 53.6 °F 53.6 °F 100% 30.22 in 2.5 mi East 6.9 mph - N/A   Overcast
12:53 PM 55.4 °F 53.6 °F 94% 30.22 in 3.0 mi ESE 6.9 mph - N/A   Mostly Cloudy
12:56 PM 55.0 °F 53.1 °F 93% 30.22 in 3.0 mi ESE 6.9 mph - N/A   Mostly Cloudy
1:05 PM 57.2 °F 53.6 °F 88% 30.21 in 5.0 mi ESE 5.8 mph - N/A   Overcast
2:56 PM 61.0 °F 53.1 °F 75% 30.19 in 5.0 mi SE 5.8 mph - N/A   Haze
3:56 PM 60.1 °F 53.1 °F 78% 30.19 in 5.0 mi ESE 3.5 mph - N/A   Haze
4:56 PM 57.0 °F 54.0 °F 89% 30.20 in 4.0 mi ENE 4.6 mph - N/A   Overcast
5:56 PM 54.0 °F 53.1 °F 97% 30.22 in 4.0 mi NNE 5.8 mph - N/A   Mostly Cloudy
6:56 PM 54.0 °F 53.1 °F 97% 30.21 in 4.0 mi Calm Calm - N/A   Overcast
7:56 PM 55.9 °F 53.1 °F 90% 30.22 in 4.0 mi Calm Calm - N/A   Mostly Cloudy
8:56 PM 52.0 °F 51.1 °F 97% 30.24 in 4.0 mi West 6.9 mph - N/A   Mostly Cloudy
9:56 PM 50.0 °F 48.9 °F 96% 30.23 in 4.0 mi SW 6.9 mph - N/A   Partly Cloudy
10:56 PM 51.1 °F 50.0 °F 96% 30.22 in 3.0 mi SW 6.9 mph - N/A   Mostly Cloudy
11:56 PM 50.0 °F 50.0 °F 100% 30.22 in 3.0 mi NE 4.6 mph - N/A   Mostly Cloudy